Tracking 30072 objects as of 14-Jan-2025
HD Live streaming from Space Station
objects crossing your sky now

STARLINK-2707

Track STARLINK-2707 now!
10-day predictions
STARLINK-2707 is classified as:


NORAD ID: 48669
Int'l Code: 2021-044AH
Perigee: 553.2 km
Apogee: 555.4 km
Inclination: 53.1 °
Period: 95.6 minutes
Semi major axis: 6925 km
RCS: Unknown
Launch date: May 26, 2021
Source: United States (US)
Launch site: AIR FORCE EASTERN TEST RANGE (AFETR)
Your satellite tracking list
Your tracking list is empty




NASA's NSSDC Master Catalog

Two Line Element Set (TLE):
1 48669U 21044AH  25013.92207532 -.00001476  00000-0 -80185-4 0  9991
2 48669  53.0516 196.0274 0001576 110.1731 249.9427 15.06410268200571
Source of the keplerian elements: AFSPC